Location: Kershaw
(34.5481°N, 80.5823°W)
Time: 20:39:36
(UTC+00:00)

Transit 4A - Pass Details

Date: 03 October 2022
Orbit: 871 x 972 km, 66.8° (Epoch: 01 December)

Event Time Altitude Azimuth Distance (km) Brightness Sun altitude
Rises 03:23:18 0° 217° (SW) 3,618 - -50.4°
Reaches altitude 10° 03:25:55 10° 222° (SW) 2,663 - -50.8°
Maximum altitude 03:31:59 55° 299° (WNW) 1,106 - -51.7°
Drops below altitude 10° 03:37:56 10° 17° (NNE) 2,608 - -52.5°
Sets 03:40:30 0° 22° (NNE) 3,537 - -52.8°
